Date,TemperatureHighF,TemperatureAvgF,TemperatureLowF,DewpointHighF,DewpointAvgF,DewpointLowF,HumidityHigh,HumidityAvg,HumidityLow,PressureMaxIn,PressureMinIn,WindSpeedMaxMPH,WindSpeedAvgMPH,GustSpeedMaxMPH,PrecipitationSumIn
2013-2-1,3,-5,-13,-2,-10,-17,83,72,51,30.40,30.15,9,1,0,0.00
2013-2-2,15,6,-1,6,0,-4,86,76,56,30.26,30.03,6,0,0,0.00
2013-2-3,12,9,2,7,3,-2,87,78,67,30.14,30.03,12,2,15,0.00
2013-2-4,16,10,1,10,2,-4,88,72,55,30.14,29.79,10,1,0,0.00
2013-2-5,30,21,6,23,15,4,92,79,52,30.11,29.69,14,2,14,0.01
2013-2-6,26,16,5,21,12,2,90,85,77,30.14,29.98,4,0,0,0.00
2013-2-7,28,25,23,23,21,20,92,86,78,30.28,30.03,4,0,0,0.00
2013-2-8,32,22,10,21,15,7,91,75,49,30.42,30.25,10,1,14,0.00
2013-2-9,31,28,24,28,24,20,92,87,83,30.25,29.95,18,5,21,0.00
2013-2-10,33,30,27,31,28,24,95,92,87,29.95,29.29,11,1,13,0.00
2013-2-11,29,24,16,28,20,12,95,83,73,30.06,29.34,19,6,26,0.00
2013-2-12,35,24,14,24,18,10,87,78,60,30.06,29.82,13,2,13,0.00
2013-2-13,41,29,21,31,24,18,94,83,61,29.83,29.57,7,1,0,0.04
2013-2-14,32,25,13,31,18,4,94,75,41,30.20,29.60,17,2,19,0.01
2013-2-15,19,11,4,5,2,-1,82,68,49,30.35,30.20,13,3,20,0.00
2013-2-16,24,10,1,9,3,-2,85,74,48,30.31,30.17,6,0,0,0.00
2013-2-17,32,21,6,21,14,1,84,74,63,30.17,29.66,18,4,23,0.00
2013-2-18,32,23,8,29,17,2,89,80,73,29.83,29.53,22,5,26,0.00
2013-2-19,10,5,1,2,-3,-6,80,67,55,30.43,29.83,19,6,24,0.00
2013-2-20,22,6,-6,6,-2,-9,85,69,47,30.55,30.43,7,0,0,0.01
2013-2-21,28,14,1,15,6,-3,86,70,49,30.53,30.15,4,0,0,0.00
2013-2-22,33,24,20,24,19,15,90,83,67,30.16,29.88,5,0,0,0.02
2013-2-23,33,24,19,25,20,17,92,84,69,29.98,29.86,7,1,0,0.00
2013-2-24,38,24,11,24,18,9,92,78,55,30.13,29.99,6,0,0,0.06
2013-2-25,40,29,20,25,21,17,89,75,53,30.13,30.05,4,0,0,0.01
2013-2-26,41,27,15,29,22,12,92,81,61,30.08,29.90,5,0,0,0.00
2013-2-27,42,32,28,27,25,22,84,75,53,30.05,29.89,12,1,19,0.00
2013-2-28,30,28,23,23,21,16,80,74,68,30.25,30.04,5,0,0,0.00